WREN-1 (60478 NORAD) Tracking and Keplerian Element Data

This shows tracking and keplerian element data for the satellite.

Feedback or suggestion? Click here.




ElementValue
Catalog60478
NameWREN-1
Epoch Orbit864
Epoch Day286.76712327
Epoch Year2024
RAAN1.4311
Inclination97.4366
Eccentricity0.000601
Argument of Perigee271.9058
Mean Anonmoly88.1489
Mean Motion15.20005146
Decay Rate0.00024215
L11 60478U 24149L 24286.76712327 .00024215 00000+0 11240-2 0 9995
L22 60478 97.4366 1.4311 0006010 271.9058 88.1489 15.20005146 8641



Live tracking and technical data element details for WREN-1 (NORAD 60478). WREN-1 can be tracked NOW for your location showing map with azimuth and elevation plus other details from your city location.







IsCatalogInMostPopularTable: catalog: 60478, numindb: 5
Update: records affected: 1



GetName: 60478 WREN-1

Hit Count: updated at: Tue, 03 Dec 2024 02:09:10 GMT